Regional Weather Roundup
Issued by NWS

Home | Current Version | Previous Version | Text Only | Print | Product List | Glossary Off
Versions: 1 2 3 4 5 6 7 8 9 10 11 12 13 14 15 16 17 18 19 20 21 22 23 24 25

000
ASUS45 KTFX 221610
RWRMT
MONTANA REGIONAL WEATHER ROUNDUP
NATIONAL WEATHER SERVICE GREAT FALLS MT
1000 AM MDT TUE AUG 22 2017

NOTE: "FAIR" INDICATES FEW OR NO CLOUDS BELOW 12000 FEET WITH NO
SIGNIFICANT WEATHER AND/OR OBSTRUCTIONS TO VISIBILITY.

MTZ001>007-043-221700-
WEST OF THE DIVIDE

CITY           SKY/WX    TMP DP  RH WIND       PRES   REMARKS
KALISPELL      SUNNY     68  45  43 N7        30.16S
MISSOULA       SUNNY     59  40  49 CALM      30.20S HAZE
BUTTE          SUNNY     60  36  40 CALM      30.29F
MULLAN PASS    SUNNY     64  36  35 SE5       30.28R
ANACONDA         N/A     66  36  32 CALM      30.25F
DEER LODGE       N/A     61  37  41 CALM      30.27S
EUREKA           N/A     64  43  45 MISG      30.17F
HAMILTON         N/A     61  45  55 CALM      30.20S
LIBBY            N/A     64  43  45 CALM      30.14F
PLAINS           N/A     65  42  43 CALM      30.14F
RONAN            N/A     70  47  43 W2        30.19S
$$

MTZ008-052>055-221700-
SOUTHWEST MONTANA

CITY           SKY/WX    TMP DP  RH WIND       PRES   REMARKS
BOZEMAN        SUNNY     65  38  36 CALM      30.24F
DILLON         SUNNY     62  37  39 SW7       30.26F
W YELLOWSTONE  SUNNY     54  36  50 CALM      30.39F
ENNIS          SUNNY     64  36  34 VRB3      30.31F
THREE FORKS      N/A     61  40  45 CALM      30.20S
TWIN BRIDGES     N/A     60  36  40 CALM      30.22S
$$

MTZ009-010-012-014-046-048-049-054-221700-
EAST SLOPES AND CENTRAL MONTANA

CITY           SKY/WX    TMP DP  RH WIND       PRES   REMARKS
CUT BANK       SUNNY     67  38  34 CALM      30.17F
GREAT FALLS    SUNNY     67  35  30 VRB3      30.17F
MALMSTROM AFB  SUNNY     66  39  36 W7        30.17F
HELENA         SUNNY     66  38  35 VRB3      30.20F
AUGUSTA          N/A     71  38  29 SW8       30.19F
BOWMANS CRNR     N/A     65  35  32 S7        30.18F
CHOTEAU          N/A     70  37  30 CALM      30.19F
FAIRFIELD        N/A     69  37  31 CALM      30.17S
POWER            N/A     68  35  29 CALM      30.17S
RAYNESFORD       N/A     70  35  27 CALM      30.19S
ULM              N/A     69  35  28 E3        30.17F
$$

MTZ011-013-016-021-045-047-050-051-221700-
NORTH CENTRAL MONTANA

CITY           SKY/WX    TMP DP  RH WIND       PRES   REMARKS
HAVRE          SUNNY     67  38  34 CALM      30.15S
LEWISTOWN      SUNNY     73  36  25 CALM      30.20S
N BAR RANCH      N/A     75  32  20 E7        30.24F
CHINOOK          N/A     64  43  45 E6        30.15S
DENTON           N/A     69  35  28 S6        30.15S
GEYSER           N/A     72  34  25 NE3       30.19R
GRASS RANGE      N/A     73  34  24 E6        30.16S
JUDITH GAP       N/A     70  34  26 S12       30.22F
$$

MTZ017>020-022>027-061-062-221700-
NORTHEAST MONTANA

CITY           SKY/WX    TMP DP  RH WIND       PRES   REMARKS
GLASGOW        SUNNY     70  34  26 SE9       30.18
JORDAN           N/A     72  35  25 E7        30.18S
SIDNEY         SUNNY     64  43  46 S5        30.21F
WOLF POINT     SUNNY     67  35  30 NE3       30.20F
MALTA          SUNNY     66  39  37 NE6       30.17F
PLENTYWOOD       N/A     66  37  34 CALM      30.20F
SCOBEY           N/A     67  34  29 NW2       30.17F
$$

MTZ028>42-056>058-221700-
SOUTHCENTRAL AND SOUTHEAST MONTANA

CITY           SKY/WX    TMP DP  RH WIND       PRES   REMARKS
BAKER          SUNNY     71  37  28 SE9       30.23S
BILLINGS       MOSUNNY   64  38  38 SW7       30.20F
LIVINGSTON     SUNNY     64  36  35 NW3       30.24S
MILES CITY     SUNNY     70  37  29 E6        30.18F
BIG TIMBER     SUNNY     64  36  34 VRB3      30.26S
EKALAKA          N/A     72  38  29 E9        30.19S
HARLOWTON        N/A     65  35  33 MISG      30.23S
LAUREL           N/A     63  37  37 S2        30.17F
$$

REGIONAL REPORTS...DAKOTAS

CITY           SKY/WX    TMP DP  RH WIND       PRES   REMARKS
WILLISTON      SUNNY     67  45  45 S7        30.21S
MINOT          SUNNY     71  40  32 NW12      30.17S
DICKINSON      SUNNY     69  38  32 CALM      30.22S
BEACH            N/A     70  34  26 CALM      30.26S
CROSBY           N/A     70  34  26 NW9       30.20S
TIOGA            N/A     68  34  28 W12       30.22S
WATFORD CITY     N/A     70  36  28 SW8       30.21S
BISMARCK       SUNNY     67  49  52 NW3       30.21S
GRAND FORKS    MOSUNNY   71  46  40 NW16G26   30.05S
FARGO          SUNNY     70  50  49 NW13      30.09R
BUFFALO SD       N/A     73  41  31 S8        30.17F
RAPID CITY     SUNNY     71  46  40 SE14      30.24F
$$

REGIONAL REPORTS...WYOMING/IDAHO/WASHINGTON

CITY           SKY/WX    TMP DP  RH WIND       PRES   REMARKS
GILLETTE       SUNNY     73  43  33 S15G23    30.24S
SHERIDAN       SUNNY     70  41  34 E3        30.22S
BUFFALO WY     SUNNY     74  34  23 CALM      30.27S
CODY           SUNNY     70  37  29 W3        30.28F
YELLOWSTONE LA   N/A     54  46  74 E5        30.47S
IDAHO FALLS    SUNNY     64  42  44 N3        30.27S
SALMON         SUNNY     59  43  55 CALM      30.25F
BOISE          SUNNY     74  41  30 E3        30.13R
SPOKANE        MOSUNNY   68  48  48 E10       30.09S
$$

REGIONAL REPORTS...ALBERTA

CITY           SKY/WX    TMP DP  RH WIND       PRES   REMARKS
EDMONTON       MOSUNNY   66  55  68 W3        30.08F
CALGARY        MOSUNNY   68  46  45 VRB2      30.15F
LETHBRIDGE     SUNNY     66  41  39 NW8       30.13F
MEDICINE HAT   MOSUNNY   70  41  35 N2        30.11F
$$

REGIONAL REPORTS...SASKATCHEWAN

CITY           SKY/WX    TMP DP  RH WIND       PRES   REMARKS
SWIFT CURRENT  SUNNY     72  34  25 SW16G23   30.15S
REGINA         PTSUNNY   66  37  34 SE3       30.18S
SASKATOON      PTSUNNY   64  45  48 S10       30.11F
$$




USA.gov is the U.S. government's official web portal to all federal, state and local government web resources and services.